owner,sensor,date,latitude,longitude,vertical_datum,wind_speed,wind_to_direction,wind_speed_of_gust,qcFlag 
DISL,ioos:station:DISL:DISL:1,2013-01-01T06:30:00Z,30.2513,-88.0778,9.68,4.24,124.1,-9999.0,'1111122,1111122,1111122' 
DISL,ioos:station:DISL:DISL:1,2013-01-01T07:00:00Z,30.2513,-88.0778,9.68,3.86,140.9,-9999.0,'1111122,1111122,1111122' 
DISL,ioos:station:DISL:DISL:1,2013-01-01T07:30:00Z,30.2513,-88.0778,9.68,4.3,148.8,-9999.0,'1111122,1111122,1111122' 
DISL,ioos:station:DISL:DISL:1,2013-01-01T08:00:00Z,30.2513,-88.0778,9.68,4.01,147.7,-9999.0,'1111122,1111122,1111122' 
DISL,ioos:station:DISL:DISL:1,2013-01-01T08:30:00Z,30.2513,-88.0778,9.68,4.29,147.7,-9999.0,'1111122,1111122,1111122' 
DISL,ioos:station:DISL:DISL:1,2013-01-01T09:00:00Z,30.2513,-88.0778,9.68,3.89,154.4,-9999.0,'1111122,1111122,1111122' 
DISL,ioos:station:DISL:DISL:1,2013-01-01T09:30:00Z,30.2513,-88.0778,9.68,3.87,153.0,-9999.0,'1111122,1111122,1111122' 
DISL,ioos:station:DISL:DISL:1,2013-01-01T10:00:00Z,30.2513,-88.0778,9.68,3.47,163.2,-9999.0,'1111122,1111122,1111122' 
DISL,ioos:station:DISL:DISL:1,2013-01-01T10:30:00Z,30.2513,-88.0778,9.68,3.53,150.7,-9999.0,'1111122,1111122,1111122' 
DISL,ioos:station:DISL:DISL:1,2013-01-01T11:00:00Z,30.2513,-88.0778,9.68,4.33,159.4,-9999.0,'1111122,1111122,1111122' 
DISL,ioos:station:DISL:DISL:1,2013-01-01T11:30:00Z,30.2513,-88.0778,9.68,4.12,151.2,-9999.0,'1111122,1111122,1111122' 
DISL,ioos:station:DISL:DISL:1,2013-01-01T12:00:00Z,30.2513,-88.0778,9.68,4.64,157.2,-9999.0,'1111122,1111122,1111122' 
DISL,ioos:station:DISL:DISL:1,2013-01-01T12:30:00Z,30.2513,-88.0778,9.68,3.52,161.7,-9999.0,'1111122,1111122,1111122' 
DISL,ioos:station:DISL:DISL:1,2013-01-01T13:00:00Z,30.2513,-88.0778,9.68,3.03,164.0,-9999.0,'1111122,1111122,1111122' 
DISL,ioos:station:DISL:DISL:1,2013-01-01T13:30:00Z,30.2513,-88.0778,9.68,4.08,161.2,-9999.0,'1111122,1111122,1111122' 
DISL,ioos:station:DISL:DISL:1,2013-01-01T14:00:00Z,30.2513,-88.0778,9.68,3.82,158.9,-9999.0,'1111122,1111122,1111122' 
DISL,ioos:station:DISL:DISL:1,2013-01-01T14:30:00Z,30.2513,-88.0778,9.68,3.79,157.0,-9999.0,'1111122,1111122,1111122' 
DISL,ioos:station:DISL:DISL:1,2013-01-01T15:00:00Z,30.2513,-88.0778,9.68,4.14,157.4,-9999.0,'1111122,1111122,1111122' 
DISL,ioos:station:DISL:DISL:1,2013-01-01T15:30:00Z,30.2513,-88.0778,9.68,3.39,149.5,-9999.0,'1111122,1111122,1111122' 
DISL,ioos:station:DISL:DISL:1,2013-01-01T16:00:00Z,30.2513,-88.0778,9.68,3.25,151.1,-9999.0,'1111122,1111122,1111122' 
DISL,ioos:station:DISL:DISL:1,2013-01-01T16:30:00Z,30.2513,-88.0778,9.68,2.83,155.7,-9999.0,'1111122,1111122,1111122' 
DISL,ioos:station:DISL:DISL:1,2013-01-01T17:00:00Z,30.2513,-88.0778,9.68,3.25,155.4,-9999.0,'1111122,1111122,1111122' 
DISL,ioos:station:DISL:DISL:1,2013-01-01T17:30:00Z,30.2513,-88.0778,9.68,2.21,175.9,-9999.0,'1111122,1111122,1111122' 
DISL,ioos:station:DISL:DISL:1,2013-01-01T18:00:00Z,30.2513,-88.0778,9.68,2.04,172.3,-9999.0,'1111122,1111122,1111122' 
DISL,ioos:station:DISL:DISL:1,2013-01-01T18:30:00Z,30.2513,-88.0778,9.68,2.38,191.8,-9999.0,'1111122,1111122,1111122' 
DISL,ioos:station:DISL:DISL:1,2013-01-01T19:00:00Z,30.2513,-88.0778,9.68,2.63,169.4,-9999.0,'1111122,1111122,1111122' 
DISL,ioos:station:DISL:DISL:1,2013-01-01T19:30:00Z,30.2513,-88.0778,9.68,3.23,153.4,-9999.0,'1111122,1111122,1111122' 
DISL,ioos:station:DISL:DISL:1,2013-01-01T20:00:00Z,30.2513,-88.0778,9.68,2.89,171.7,-9999.0,'1111122,1111122,1111122' 
DISL,ioos:station:DISL:DISL:1,2013-01-01T20:30:00Z,30.2513,-88.0778,9.68,2.24,152.4,-9999.0,'1111122,1111122,1111122' 
DISL,ioos:station:DISL:DISL:1,2013-01-01T21:00:00Z,30.2513,-88.0778,9.68,1.33,111.2,-9999.0,'1111122,1111122,1111122' 
DISL,ioos:station:DISL:DISL:1,2013-01-01T21:30:00Z,30.2513,-88.0778,9.68,1.52,143.3,-9999.0,'1111122,1111122,1111122' 
DISL,ioos:station:DISL:DISL:1,2013-01-01T22:00:00Z,30.2513,-88.0778,9.68,1.44,118.3,-9999.0,'1111122,1111122,1111122' 
DISL,ioos:station:DISL:DISL:1,2013-01-01T22:30:00Z,30.2513,-88.0778,9.68,2.71,133.2,-9999.0,'1111122,1111122,1111122' 
DISL,ioos:station:DISL:DISL:1,2013-01-01T23:00:00Z,30.2513,-88.0778,9.68,2.77,130.5,-9999.0,'1111122,1111122,1111122' 
DISL,ioos:station:DISL:DISL:1,2013-01-01T23:30:00Z,30.2513,-88.0778,9.68,1.87,150.8,-9999.0,'1111122,1111122,1111122' 
DISL,ioos:station:DISL:DISL:1,2013-01-02T00:00:00Z,30.2513,-88.0778,9.68,2.13,163.8,-9999.0,'1111122,1111122,1111122' 
DISL,ioos:station:DISL:DISL:1,2013-01-02T00:30:00Z,30.2513,-88.0778,9.68,1.34,164.6,-9999.0,'1111122,1111122,1111122' 
DISL,ioos:station:DISL:DISL:1,2013-01-02T01:00:00Z,30.2513,-88.0778,9.68,1.61,158.8,-9999.0,'1111122,1111122,1111122' 
DISL,ioos:station:DISL:DISL:1,2013-01-02T01:30:00Z,30.2513,-88.0778,9.68,1.67,164.7,-9999.0,'1111122,1111122,1111122' 
DISL,ioos:station:DISL:DISL:1,2013-01-02T02:00:00Z,30.2513,-88.0778,9.68,0.86,174.6,-9999.0,'1111122,1111122,1111122' 
DISL,ioos:station:DISL:DISL:1,2013-01-02T02:30:00Z,30.2513,-88.0778,9.68,1.16,225.5,-9999.0,'1111122,1111122,1111122' 
DISL,ioos:station:DISL:DISL:1,2013-01-02T03:00:00Z,30.2513,-88.0778,9.68,4.69,278.2,-9999.0,'1111122,1111122,1111122' 
DISL,ioos:station:DISL:DISL:1,2013-01-02T03:30:00Z,30.2513,-88.0778,9.68,3.43,267.5,-9999.0,'1111122,1111122,1111122' 
DISL,ioos:station:DISL:DISL:1,2013-01-02T04:00:00Z,30.2513,-88.0778,9.68,2.95,265.6,-9999.0,'1111122,1111122,1111122' 
DISL,ioos:station:DISL:DISL:1,2013-01-02T04:30:00Z,30.2513,-88.0778,9.68,5.9,297.2,-9999.0,'1111122,1111122,1111122' 
DISL,ioos:station:DISL:DISL:1,2013-01-02T05:00:00Z,30.2513,-88.0778,9.68,4.72,330.7,-9999.0,'1111122,1111122,1111122' 
DISL,ioos:station:DISL:DISL:1,2013-01-02T05:30:00Z,30.2513,-88.0778,9.68,7.12,358.0,-9999.0,'1111122,1111122,1111122' 
DISL,ioos:station:DISL:DISL:1,2013-01-02T06:00:00Z,30.2513,-88.0778,9.68,6.39,356.6,-9999.0,'1111122,1111122,1111122' 
DISL,ioos:station:DISL:DISL:1,2013-01-02T06:30:00Z,30.2513,-88.0778,9.68,7.71,351.2,-9999.0,'1111122,1111122,1111122' 
DISL,ioos:station:DISL:DISL:1,2013-01-02T07:00:00Z,30.2513,-88.0778,9.68,8.61,3.647,-9999.0,'1111122,1111122,1111122' 
DISL,ioos:station:DISL:DISL:1,2013-01-02T07:30:00Z,30.2513,-88.0778,9.68,8.65,354.6,-9999.0,'1111122,1111122,1111122' 
DISL,ioos:station:DISL:DISL:1,2013-01-02T08:00:00Z,30.2513,-88.0778,9.68,8.13,351.3,-9999.0,'1111122,1111122,1111122' 
DISL,ioos:station:DISL:DISL:1,2013-01-02T08:30:00Z,30.2513,-88.0778,9.68,7.99,356.8,-9999.0,'1111122,1111122,1111122' 
DISL,ioos:station:DISL:DISL:1,2013-01-02T09:00:00Z,30.2513,-88.0778,9.68,6.58,0.557,-9999.0,'1111122,1111122,1111122' 
DISL,ioos:station:DISL:DISL:1,2013-01-02T09:30:00Z,30.2513,-88.0778,9.68,8.07,349.0,-9999.0,'1111122,1111122,1111122' 
DISL,ioos:station:DISL:DISL:1,2013-01-02T10:00:00Z,30.2513,-88.0778,9.68,8.67,359.5,-9999.0,'1111122,1111122,1111122' 
DISL,ioos:station:DISL:DISL:1,2013-01-02T10:30:00Z,30.2513,-88.0778,9.68,9.49,348.8,-9999.0,'1111122,1111122,1111122' 
DISL,ioos:station:DISL:DISL:1,2013-01-02T11:00:00Z,30.2513,-88.0778,9.68,8.69,355.0,-9999.0,'1111122,1111122,1111122' 
DISL,ioos:station:DISL:DISL:1,2013-01-02T11:30:00Z,30.2513,-88.0778,9.68,7.97,358.7,-9999.0,'1111122,1111122,1111122' 
DISL,ioos:station:DISL:DISL:1,2013-01-02T12:00:00Z,30.2513,-88.0778,9.68,8.8,355.8,-9999.0,'1111122,1111122,1111122' 
DISL,ioos:station:DISL:DISL:1,2013-01-02T12:30:00Z,30.2513,-88.0778,9.68,9.27,353.4,-9999.0,'1111122,1111122,1111122' 
DISL,ioos:station:DISL:DISL:1,2013-01-02T13:00:00Z,30.2513,-88.0778,9.68,9.67,1.672,-9999.0,'1111122,1111122,1111122' 
DISL,ioos:station:DISL:DISL:1,2013-01-02T13:30:00Z,30.2513,-88.0778,9.68,8.61,0.019,-9999.0,'1111122,1111122,1111122' 
DISL,ioos:station:DISL:DISL:1,2013-01-02T14:00:00Z,30.2513,-88.0778,9.68,9.02,356.4,-9999.0,'1111122,1111122,1111122' 
DISL,ioos:station:DISL:DISL:1,2013-01-02T14:30:00Z,30.2513,-88.0778,9.68,8.88,1.584,-9999.0,'1111122,1111122,1111122' 
DISL,ioos:station:DISL:DISL:1,2013-01-02T15:00:00Z,30.2513,-88.0778,9.68,9.1,358.4,-9999.0,'1111122,1111122,1111122' 
DISL,ioos:station:DISL:DISL:1,2013-01-02T15:30:00Z,30.2513,-88.0778,9.68,8.41,357.4,-9999.0,'1111122,1111122,1111122' 
DISL,ioos:station:DISL:DISL:1,2013-01-02T16:00:00Z,30.2513,-88.0778,9.68,7.68,358.6,-9999.0,'1111122,1111122,1111122' 
DISL,ioos:station:DISL:DISL:1,2013-01-02T16:30:00Z,30.2513,-88.0778,9.68,8.86,349.8,-9999.0,'1111122,1111122,1111122' 
DISL,ioos:station:DISL:DISL:1,2013-01-02T17:00:00Z,30.2513,-88.0778,9.68,8.85,356.8,-9999.0,'1111122,1111122,1111122' 
DISL,ioos:station:DISL:DISL:1,2013-01-02T17:30:00Z,30.2513,-88.0778,9.68,7.67,3.893,-9999.0,'1111122,1111122,1111122' 
DISL,ioos:station:DISL:DISL:1,2013-01-02T18:00:00Z,30.2513,-88.0778,9.68,7.24,2.906,-9999.0,'1111122,1111122,1111122' 
DISL,ioos:station:DISL:DISL:1,2013-01-02T18:30:00Z,30.2513,-88.0778,9.68,8.78,353.9,-9999.0,'1111122,1111122,1111122' 
DISL,ioos:station:DISL:DISL:1,2013-01-02T19:00:00Z,30.2513,-88.0778,9.68,8.65,351.0,-9999.0,'1111122,1111122,1111122' 
DISL,ioos:station:DISL:DISL:1,2013-01-02T19:30:00Z,30.2513,-88.0778,9.68,7.34,355.4,-9999.0,'1111122,1111122,1111122' 
DISL,ioos:station:DISL:DISL:1,2013-01-02T20:00:00Z,30.2513,-88.0778,9.68,7.8,356.1,-9999.0,'1111122,1111122,1111122' 
DISL,ioos:station:DISL:DISL:1,2013-01-02T20:30:00Z,30.2513,-88.0778,9.68,8.18,354.0,-9999.0,'1111122,1111122,1111122' 
DISL,ioos:station:DISL:DISL:1,2013-01-02T21:00:00Z,30.2513,-88.0778,9.68,7.63,355.5,-9999.0,'1111122,1111122,1111122' 
DISL,ioos:station:DISL:DISL:1,2013-01-02T21:30:00Z,30.2513,-88.0778,9.68,8.1,1.199,-9999.0,'1111122,1111122,1111122' 
DISL,ioos:station:DISL:DISL:1,2013-01-02T22:00:00Z,30.2513,-88.0778,9.68,7.15,348.2,-9999.0,'1111122,1111122,1111122' 
DISL,ioos:station:DISL:DISL:1,2013-01-02T22:30:00Z,30.2513,-88.0778,9.68,6.87,338.7,-9999.0,'1111122,1111122,1111122' 
DISL,ioos:station:DISL:DISL:1,2013-01-02T23:00:00Z,30.2513,-88.0778,9.68,6.84,348.0,-9999.0,'1111122,1111122,1111122' 
DISL,ioos:station:DISL:DISL:1,2013-01-02T23:30:00Z,30.2513,-88.0778,9.68,6.94,337.4,-9999.0,'1111122,1111122,1111122' 
DISL,ioos:station:DISL:DISL:1,2013-01-03T00:00:00Z,30.2513,-88.0778,9.68,6.74,341.0,-9999.0,'1111122,1111122,1111122' 
DISL,ioos:station:DISL:DISL:1,2013-01-03T00:30:00Z,30.2513,-88.0778,9.68,7.75,347.6,-9999.0,'1111122,1111122,1111122' 
DISL,ioos:station:DISL:DISL:1,2013-01-03T01:00:00Z,30.2513,-88.0778,9.68,7.52,359.1,-9999.0,'1111122,1111122,1111122' 
DISL,ioos:station:DISL:DISL:1,2013-01-03T01:30:00Z,30.2513,-88.0778,9.68,8.03,358.5,-9999.0,'1111122,1111122,1111122' 
DISL,ioos:station:DISL:DISL:1,2013-01-03T02:00:00Z,30.2513,-88.0778,9.68,8.58,344.4,-9999.0,'1111122,1111122,1111122' 
DISL,ioos:station:DISL:DISL:1,2013-01-03T02:30:00Z,30.2513,-88.0778,9.68,9.21,354.6,-9999.0,'1111122,1111122,1111122' 
DISL,ioos:station:DISL:DISL:1,2013-01-03T03:00:00Z,30.2513,-88.0778,9.68,9.05,349.1,-9999.0,'1111122,1111122,1111122' 
DISL,ioos:station:DISL:DISL:1,2013-01-03T03:30:00Z,30.2513,-88.0778,9.68,7.81,349.0,-9999.0,'1111122,1111122,1111122' 
DISL,ioos:station:DISL:DISL:1,2013-01-03T04:00:00Z,30.2513,-88.0778,9.68,8.09,2.385,-9999.0,'1111122,1111122,1111122' 
DISL,ioos:station:DISL:DISL:1,2013-01-03T04:30:00Z,30.2513,-88.0778,9.68,8.17,4.258,-9999.0,'1111122,1111122,1111122' 
DISL,ioos:station:DISL:DISL:1,2013-01-03T05:00:00Z,30.2513,-88.0778,9.68,9.41,347.6,-9999.0,'1111122,1111122,1111122' 
DISL,ioos:station:DISL:DISL:1,2013-01-03T05:30:00Z,30.2513,-88.0778,9.68,9.09,1.591,-9999.0,'1111122,1111122,1111122' 
DISL,ioos:station:DISL:DISL:1,2013-01-03T06:00:00Z,30.2513,-88.0778,9.68,9.39,355.3,-9999.0,'1111122,1111122,1111122' 
DISL,ioos:station:DISL:DISL:1,2013-01-03T06:30:00Z,30.2513,-88.0778,9.68,8.02,348.4,-9999.0,'1111122,1111122,1111122' 
DISL,ioos:station:DISL:DISL:1,2013-01-03T07:00:00Z,30.2513,-88.0778,9.68,8.29,354.0,-9999.0,'1111122,1111122,1111122' 
DISL,ioos:station:DISL:DISL:1,2013-01-03T07:30:00Z,30.2513,-88.0778,9.68,8.38,352.2,-9999.0,'1111122,1111122,1111122' 
DISL,ioos:station:DISL:DISL:1,2013-01-03T08:00:00Z,30.2513,-88.0778,9.68,8.65,358.5,-9999.0,'1111122,1111122,1111122' 
DISL,ioos:station:DISL:DISL:1,2013-01-03T08:30:00Z,30.2513,-88.0778,9.68,9.1,3.303,-9999.0,'1111122,1111122,1111122' 
DISL,ioos:station:DISL:DISL:1,2013-01-03T09:00:00Z,30.2513,-88.0778,9.68,8.47,9.48,-9999.0,'1111122,1111122,1111122' 
DISL,ioos:station:DISL:DISL:1,2013-01-03T09:30:00Z,30.2513,-88.0778,9.68,8.12,0.733,-9999.0,'1111122,1111122,1111122' 
DISL,ioos:station:DISL:DISL:1,2013-01-03T10:00:00Z,30.2513,-88.0778,9.68,8.71,355.6,-9999.0,'1111122,1111122,1111122' 
DISL,ioos:station:DISL:DISL:1,2013-01-03T10:30:00Z,30.2513,-88.0778,9.68,8.23,355.0,-9999.0,'1111122,1111122,1111122' 
DISL,ioos:station:DISL:DISL:1,2013-01-03T11:00:00Z,30.2513,-88.0778,9.68,7.87,359.8,-9999.0,'1111122,1111122,1111122' 
DISL,ioos:station:DISL:DISL:1,2013-01-03T11:30:00Z,30.2513,-88.0778,9.68,8.53,357.9,-9999.0,'1111122,1111122,1111122' 
DISL,ioos:station:DISL:DISL:1,2013-01-03T12:00:00Z,30.2513,-88.0778,9.68,6.76,0.875,-9999.0,'1111122,1111122,1111122' 
DISL,ioos:station:DISL:DISL:1,2013-01-03T12:30:00Z,30.2513,-88.0778,9.68,8.2,358.3,-9999.0,'1111122,1111122,1111122' 
DISL,ioos:station:DISL:DISL:1,2013-01-03T13:00:00Z,30.2513,-88.0778,9.68,9.16,345.2,-9999.0,'1111122,1111122,1111122' 
DISL,ioos:station:DISL:DISL:1,2013-01-03T13:30:00Z,30.2513,-88.0778,9.68,10.46,341.8,-9999.0,'1111122,1111122,1111122' 
DISL,ioos:station:DISL:DISL:1,2013-01-03T14:00:00Z,30.2513,-88.0778,9.68,9.22,345.9,-9999.0,'1111122,1111122,1111122' 
DISL,ioos:station:DISL:DISL:1,2013-01-03T14:30:00Z,30.2513,-88.0778,9.68,8.92,4.213,-9999.0,'1111122,1111122,1111122' 
DISL,ioos:station:DISL:DISL:1,2013-01-03T15:00:00Z,30.2513,-88.0778,9.68,9.95,357.1,-9999.0,'1111122,1111122,1111122' 
DISL,ioos:station:DISL:DISL:1,2013-01-03T15:30:00Z,30.2513,-88.0778,9.68,10.32,1.735,-9999.0,'1111122,1111122,1111122' 
DISL,ioos:station:DISL:DISL:1,2013-01-03T16:00:00Z,30.2513,-88.0778,9.68,9.38,0.743,-9999.0,'1111122,1111122,1111122' 
DISL,ioos:station:DISL:DISL:1,2013-01-03T16:30:00Z,30.2513,-88.0778,9.68,9.66,356.2,-9999.0,'1111122,1111122,1111122' 
DISL,ioos:station:DISL:DISL:1,2013-01-03T17:00:00Z,30.2513,-88.0778,9.68,9.1,355.9,-9999.0,'1111122,1111122,1111122' 
DISL,ioos:station:DISL:DISL:1,2013-01-03T17:30:00Z,30.2513,-88.0778,9.68,8.95,0.983,-9999.0,'1111122,1111122,1111122' 
DISL,ioos:station:DISL:DISL:1,2013-01-03T18:00:00Z,30.2513,-88.0778,9.68,8.47,352.3,-9999.0,'1111122,1111122,1111122' 
DISL,ioos:station:DISL:DISL:1,2013-01-03T18:30:00Z,30.2513,-88.0778,9.68,8.63,357.2,-9999.0,'1111122,1111122,1111122' 
DISL,ioos:station:DISL:DISL:1,2013-01-03T19:00:00Z,30.2513,-88.0778,9.68,9.17,350.5,-9999.0,'1111122,1111122,1111122' 
DISL,ioos:station:DISL:DISL:1,2013-01-03T19:30:00Z,30.2513,-88.0778,9.68,8.19,352.7,-9999.0,'1111122,1111122,1111122' 
DISL,ioos:station:DISL:DISL:1,2013-01-03T20:00:00Z,30.2513,-88.0778,9.68,8.67,355.4,-9999.0,'1111122,1111122,1111122' 
DISL,ioos:station:DISL:DISL:1,2013-01-03T20:30:00Z,30.2513,-88.0778,9.68,8.29,357.5,-9999.0,'1111122,1111122,1111122' 
DISL,ioos:station:DISL:DISL:1,2013-01-03T21:00:00Z,30.2513,-88.0778,9.68,8.99,1.133,-9999.0,'1111122,1111122,1111122' 
DISL,ioos:station:DISL:DISL:1,2013-01-03T21:30:00Z,30.2513,-88.0778,9.68,8.49,0.653,-9999.0,'1111122,1111122,1111122' 
DISL,ioos:station:DISL:DISL:1,2013-01-03T22:00:00Z,30.2513,-88.0778,9.68,8.82,3.449,-9999.0,'1111122,1111122,1111122' 
DISL,ioos:station:DISL:DISL:1,2013-01-03T22:30:00Z,30.2513,-88.0778,9.68,8.71,6.178,-9999.0,'1111122,1111122,1111122' 
DISL,ioos:station:DISL:DISL:1,2013-01-03T23:00:00Z,30.2513,-88.0778,9.68,8.98,7.53,-9999.0,'1111122,1111122,1111122' 
DISL,ioos:station:DISL:DISL:1,2013-01-03T23:30:00Z,30.2513,-88.0778,9.68,10.35,2.49,-9999.0,'1111122,1111122,1111122' 
DISL,ioos:station:DISL:DISL:1,2013-01-04T00:00:00Z,30.2513,-88.0778,9.68,9.58,357.6,-9999.0,'1111122,1111122,1111122' 
DISL,ioos:station:DISL:DISL:1,2013-01-04T00:30:00Z,30.2513,-88.0778,9.68,8.89,3.056,-9999.0,'1111122,1111122,1111122' 
DISL,ioos:station:DISL:DISL:1,2013-01-04T01:00:00Z,30.2513,-88.0778,9.68,8.9,1.556,-9999.0,'1111122,1111122,1111122' 
DISL,ioos:station:DISL:DISL:1,2013-01-04T01:30:00Z,30.2513,-88.0778,9.68,8.27,347.6,-9999.0,'1111122,1111122,1111122' 
DISL,ioos:station:DISL:DISL:1,2013-01-04T02:00:00Z,30.2513,-88.0778,9.68,8.64,8.23,-9999.0,'1111122,1111122,1111122' 
DISL,ioos:station:DISL:DISL:1,2013-01-04T02:30:00Z,30.2513,-88.0778,9.68,8.71,12.96,-9999.0,'1111122,1111122,1111122' 
DISL,ioos:station:DISL:DISL:1,2013-01-04T03:00:00Z,30.2513,-88.0778,9.68,7.97,13.44,-9999.0,'1111122,1111122,1111122' 
DISL,ioos:station:DISL:DISL:1,2013-01-04T03:30:00Z,30.2513,-88.0778,9.68,8.07,13.88,-9999.0,'1111122,1111122,1111122' 
DISL,ioos:station:DISL:DISL:1,2013-01-04T04:00:00Z,30.2513,-88.0778,9.68,8.74,19.88,-9999.0,'1111122,1111122,1111122' 
DISL,ioos:station:DISL:DISL:1,2013-01-04T04:30:00Z,30.2513,-88.0778,9.68,8.36,14.62,-9999.0,'1111122,1111122,1111122' 
DISL,ioos:station:DISL:DISL:1,2013-01-04T05:00:00Z,30.2513,-88.0778,9.68,9.77,15.99,-9999.0,'1111122,1111122,1111122' 
DISL,ioos:station:DISL:DISL:1,2013-01-04T05:30:00Z,30.2513,-88.0778,9.68,8.59,16.02,-9999.0,'1111122,1111122,1111122' 
DISL,ioos:station:DISL:DISL:1,2013-01-04T06:00:00Z,30.2513,-88.0778,9.68,7.57,4.518,-9999.0,'1111122,1111122,1111122' 
DISL,ioos:station:DISL:DISL:1,2013-01-04T06:30:00Z,30.2513,-88.0778,9.68,7.52,6.961,-9999.0,'1111122,1111122,1111122' 
DISL,ioos:station:DISL:DISL:1,2013-01-04T07:00:00Z,30.2513,-88.0778,9.68,6.74,20.51,-9999.0,'1111122,1111122,1111122' 
DISL,ioos:station:DISL:DISL:1,2013-01-04T07:30:00Z,30.2513,-88.0778,9.68,7.61,17.55,-9999.0,'1111122,1111122,1111122' 
DISL,ioos:station:DISL:DISL:1,2013-01-04T08:00:00Z,30.2513,-88.0778,9.68,7.91,6.134,-9999.0,'1111122,1111122,1111122' 
DISL,ioos:station:DISL:DISL:1,2013-01-04T08:30:00Z,30.2513,-88.0778,9.68,7.95,17.44,-9999.0,'1111122,1111122,1111122' 
DISL,ioos:station:DISL:DISL:1,2013-01-04T09:00:00Z,30.2513,-88.0778,9.68,9.22,17.15,-9999.0,'1111122,1111122,1111122' 
DISL,ioos:station:DISL:DISL:1,2013-01-04T09:30:00Z,30.2513,-88.0778,9.68,9.66,17.17,-9999.0,'1111122,1111122,1111122' 
DISL,ioos:station:DISL:DISL:1,2013-01-04T10:00:00Z,30.2513,-88.0778,9.68,9.68,13.66,-9999.0,'1111122,1111122,1111122' 
DISL,ioos:station:DISL:DISL:1,2013-01-04T10:30:00Z,30.2513,-88.0778,9.68,8.84,13.85,-9999.0,'1111122,1111122,1111122' 
DISL,ioos:station:DISL:DISL:1,2013-01-04T11:00:00Z,30.2513,-88.0778,9.68,9.22,18.43,-9999.0,'1111122,1111122,1111122' 
DISL,ioos:station:DISL:DISL:1,2013-01-04T11:30:00Z,30.2513,-88.0778,9.68,8.36,22.36,-9999.0,'1111122,1111122,1111122' 
DISL,ioos:station:DISL:DISL:1,2013-01-04T12:00:00Z,30.2513,-88.0778,9.68,8.48,34.19,-9999.0,'1111122,1111122,1111122' 
DISL,ioos:station:DISL:DISL:1,2013-01-04T12:30:00Z,30.2513,-88.0778,9.68,8.57,24.15,-9999.0,'1111122,1111122,1111122' 
DISL,ioos:station:DISL:DISL:1,2013-01-04T13:00:00Z,30.2513,-88.0778,9.68,9.31,33.38,-9999.0,'1111122,1111122,1111122' 
DISL,ioos:station:DISL:DISL:1,2013-01-04T13:30:00Z,30.2513,-88.0778,9.68,7.58,39.62,-9999.0,'1111122,1111122,1111122' 
DISL,ioos:station:DISL:DISL:1,2013-01-04T14:00:00Z,30.2513,-88.0778,9.68,6.76,30.84,-9999.0,'1111122,1111122,1111122' 
DISL,ioos:station:DISL:DISL:1,2013-01-04T14:30:00Z,30.2513,-88.0778,9.68,7.5,14.12,-9999.0,'1111122,1111122,1111122' 
DISL,ioos:station:DISL:DISL:1,2013-01-04T15:00:00Z,30.2513,-88.0778,9.68,7.74,19.05,-9999.0,'1111122,1111122,1111122' 
DISL,ioos:station:DISL:DISL:1,2013-01-04T15:30:00Z,30.2513,-88.0778,9.68,6.97,14.42,-9999.0,'1111122,1111122,1111122' 
DISL,ioos:station:DISL:DISL:1,2013-01-04T16:00:00Z,30.2513,-88.0778,9.68,7.07,12.67,-9999.0,'1111122,1111122,1111122' 
DISL,ioos:station:DISL:DISL:1,2013-01-04T16:30:00Z,30.2513,-88.0778,9.68,5.83,15.03,-9999.0,'1111122,1111122,1111122' 
DISL,ioos:station:DISL:DISL:1,2013-01-04T17:00:00Z,30.2513,-88.0778,9.68,5.26,14.03,-9999.0,'1111122,1111122,1111122' 
DISL,ioos:station:DISL:DISL:1,2013-01-04T17:30:00Z,30.2513,-88.0778,9.68,5.16,357.4,-9999.0,'1111122,1111122,1111122' 
DISL,ioos:station:DISL:DISL:1,2013-01-04T18:00:00Z,30.2513,-88.0778,9.68,5.45,0.989,-9999.0,'1111122,1111122,1111122' 
DISL,ioos:station:DISL:DISL:1,2013-01-04T18:30:00Z,30.2513,-88.0778,9.68,6.06,4.211,-9999.0,'1111122,1111122,1111122' 
DISL,ioos:station:DISL:DISL:1,2013-01-04T19:00:00Z,30.2513,-88.0778,9.68,6.22,350.9,-9999.0,'1111122,1111122,1111122' 
DISL,ioos:station:DISL:DISL:1,2013-01-04T19:30:00Z,30.2513,-88.0778,9.68,6.49,349.0,-9999.0,'1111122,1111122,1111122' 
DISL,ioos:station:DISL:DISL:1,2013-01-04T20:00:00Z,30.2513,-88.0778,9.68,6.14,356.1,-9999.0,'1111122,1111122,1111122' 
DISL,ioos:station:DISL:DISL:1,2013-01-04T20:30:00Z,30.2513,-88.0778,9.68,5.62,359.5,-9999.0,'1111122,1111122,1111122' 
DISL,ioos:station:DISL:DISL:1,2013-01-04T21:00:00Z,30.2513,-88.0778,9.68,4.67,348.2,-9999.0,'1111122,1111122,1111122' 
DISL,ioos:station:DISL:DISL:1,2013-01-04T21:30:00Z,30.2513,-88.0778,9.68,4.38,351.7,-9999.0,'1111122,1111122,1111122' 
DISL,ioos:station:DISL:DISL:1,2013-01-04T22:00:00Z,30.2513,-88.0778,9.68,4.94,0.787,-9999.0,'1111122,1111122,1111122' 
DISL,ioos:station:DISL:DISL:1,2013-01-04T22:30:00Z,30.2513,-88.0778,9.68,4.94,347.6,-9999.0,'1111122,1111122,1111122' 
DISL,ioos:station:DISL:DISL:1,2013-01-04T23:00:00Z,30.2513,-88.0778,9.68,5.15,354.8,-9999.0,'1111122,1111122,1111122' 
DISL,ioos:station:DISL:DISL:1,2013-01-04T23:30:00Z,30.2513,-88.0778,9.68,4.09,3.983,-9999.0,'1111122,1111122,1111122' 
DISL,ioos:station:DISL:DISL:1,2013-01-05T00:00:00Z,30.2513,-88.0778,9.68,2.73,4.318,-9999.0,'1111122,1111122,1111122' 
DISL,ioos:station:DISL:DISL:1,2013-01-05T00:30:00Z,30.2513,-88.0778,9.68,3.47,15.04,-9999.0,'1111122,1111122,1111122' 
DISL,ioos:station:DISL:DISL:1,2013-01-05T01:00:00Z,30.2513,-88.0778,9.68,3.51,27.66,-9999.0,'1111122,1111122,1111122' 
DISL,ioos:station:DISL:DISL:1,2013-01-05T01:30:00Z,30.2513,-88.0778,9.68,3.69,29.22,-9999.0,'1111122,1111122,1111122' 
DISL,ioos:station:DISL:DISL:1,2013-01-05T02:00:00Z,30.2513,-88.0778,9.68,3.29,14.53,-9999.0,'1111122,1111122,1111122' 
DISL,ioos:station:DISL:DISL:1,2013-01-05T02:30:00Z,30.2513,-88.0778,9.68,2.34,1.114,-9999.0,'1111122,1111122,1111122' 
DISL,ioos:station:DISL:DISL:1,2013-01-05T03:00:00Z,30.2513,-88.0778,9.68,2.54,356.0,-9999.0,'1111122,1111122,1111122' 
DISL,ioos:station:DISL:DISL:1,2013-01-05T03:30:00Z,30.2513,-88.0778,9.68,2.79,4.711,-9999.0,'1111122,1111122,1111122' 
DISL,ioos:station:DISL:DISL:1,2013-01-05T04:00:00Z,30.2513,-88.0778,9.68,3.05,14.25,-9999.0,'1111122,1111122,1111122' 
DISL,ioos:station:DISL:DISL:1,2013-01-05T04:30:00Z,30.2513,-88.0778,9.68,3.75,11.78,-9999.0,'1111122,1111122,1111122' 
DISL,ioos:station:DISL:DISL:1,2013-01-05T05:00:00Z,30.2513,-88.0778,9.68,4.69,16.89,-9999.0,'1111122,1111122,1111122' 
DISL,ioos:station:DISL:DISL:1,2013-01-05T05:30:00Z,30.2513,-88.0778,9.68,6.36,30.45,-9999.0,'1111122,1111122,1111122' 
DISL,ioos:station:DISL:DISL:1,2013-01-05T06:00:00Z,30.2513,-88.0778,9.68,5.9,33.9,-9999.0,'1111122,1111122,1111122' 
DISL,ioos:station:DISL:DISL:1,2013-01-05T06:30:00Z,30.2513,-88.0778,9.68,5.67,38.81,-9999.0,'1111122,1111122,1111122' 
DISL,ioos:station:DISL:DISL:1,2013-01-05T07:00:00Z,30.2513,-88.0778,9.68,6.58,37.73,-9999.0,'1111122,1111122,1111122' 
DISL,ioos:station:DISL:DISL:1,2013-01-05T07:30:00Z,30.2513,-88.0778,9.68,5.99,35.47,-9999.0,'1111122,1111122,1111122' 
DISL,ioos:station:DISL:DISL:1,2013-01-05T08:00:00Z,30.2513,-88.0778,9.68,5.73,45.91,-9999.0,'1111122,1111122,1111122' 
DISL,ioos:station:DISL:DISL:1,2013-01-05T08:30:00Z,30.2513,-88.0778,9.68,6.27,43.37,-9999.0,'1111122,1111122,1111122' 
DISL,ioos:station:DISL:DISL:1,2013-01-05T09:00:00Z,30.2513,-88.0778,9.68,5.28,40.11,-9999.0,'1111122,1111122,1111122' 
DISL,ioos:station:DISL:DISL:1,2013-01-05T09:30:00Z,30.2513,-88.0778,9.68,6.1,52.46,-9999.0,'1111122,1111122,1111122' 
DISL,ioos:station:DISL:DISL:1,2013-01-05T10:00:00Z,30.2513,-88.0778,9.68,6.72,61.93,-9999.0,'1111122,1111122,1111122' 